Preview of NWS' New Version of Forecast
This preview is not operational and should not be used for support decisions.
Latest weather observations around

Hartford, Hartford-Brainard Airport (KHFD)

Using English Units (Switch to International System of Units)
Date/ Time (EDT) Wind (mph) Vis. (mi) Weather Sky Cond. Temp (°F) Rel. Humidity Wind Chill (°F) Heat Index (°F) Pressure Precip. (in)
Air Dwpt 6 hour Altimeter (inHg) Sea level (inHg) 1 hr 3 hr 6 hr
Max Min
May 22 08:53   10 Clear CLR 60 37     42%     30.19 30.19      
May 22 07:53 NNW 11 10 Clear CLR 58 38     47%     30.17 30.17      
May 22 06:53 NNW 6 10 Clear CLR 54 38     55%     30.15 30.15      
May 22 05:53 Calm 10 Clear CLR 49 39     69%     30.13 30.13      
May 22 04:53 Calm 10 Clear CLR 53 36     52%     30.12 30.12      
May 22 03:53 WNW 3 10 Clear CLR 54 36     50%     30.1 30.1      
May 22 02:53 WNW 3 10 Clear CLR 54 35     49%     30.09 30.09      
May 22 01:53 WNW 6 10 Clear CLR 56 34     43%     30.07 30.07      
May 22 00:53 W 5 10 Clear CLR 57 34     42%     30.06 30.06      
May 21 23:53 WNW 5 10 Clear CLR 58 34     40%     30.06 30.06      
May 21 22:53 NNW 9 10 Clear CLR 60 33     36%     30.05 30.04      
May 21 21:53 NW 7 10 Clear CLR 61 33     35%     30.02 30.02      
May 21 20:53 NW 8 10 Clear CLR 62 34     35%     29.99 29.98      
May 21 19:53 WNW 6 10 Clear CLR 64 38     38%     29.96 29.95      
May 21 18:53 WNW 15 10 Clear CLR 65 38     37%     29.93 29.93      
May 21 17:53 NW 14 10 Mostly Clear FEW070 66 37     34%     29.91 29.9      
May 21 16:53 NW 14 10 Clear CLR 68 37     32%     29.88 29.88      
May 21 15:53   10 Clear CLR 67 37     33%     29.87 29.87      
May 21 14:53   10 Clear CLR 67 38     34%     29.86 29.85      
May 21 13:53   10 Clear CLR 67 38     34%     29.85 29.85      
May 21 12:53   10 Clear CLR 65 39     38%     29.85 29.85      
May 21 11:53 NW 15 10 Mostly Clear FEW050 62 39     43%     29.87 29.87      
May 21 10:53 NW 13 10 Clear CLR 60 39     46%     29.87 29.87      
May 21 09:53 NW 17 10 Mostly Clear FEW050 59 38     45%     29.87 29.87      
May 21 08:53   10 Partly Cloudy SCT047 57 38     49%     29.88 29.88      
May 21 07:53 WNW 14 10 Mostly Cloudy BKN043 56 39     53%     29.89 29.89      
May 21 06:53   10 Mostly Cloudy BKN045 56 39     53%     29.85 29.85      
May 21 05:53   10 Clear CLR 55 40     57%     29.83 29.83      
May 21 04:53 WNW 9 10 Mostly Clear FEW055 57 41     55%     29.8 29.8      
May 21 03:53 NW 13 10 Mostly Clear FEW050 57 43     59%     29.8 29.8      
May 21 02:53 NW 10 10 Clear CLR 59 44     58%     29.78 29.78      
May 21 01:53 NW 10 10 Clear CLR 61 46     58%     29.76 29.76      
May 21 00:53 NNW 10 10 Mostly Cloudy BKN050 64 48     56%     29.77 29.77      
May 20 23:53 NNW 13 10 Partly Cloudy SCT090 66 50     56%     29.77 29.76      
May 20 22:53 NW 9 10 Clear CLR 69 56     63%     29.74 29.74      
May 20 21:53 6 10 Clear CLR 70 66     87%     29.7 29.7      
May 20 20:53 Calm 8 Clear CLR 67 65     93%     29.67 29.67      
May 20 19:53 S 6 10 Clear CLR 70 66     87%     29.67 29.67     0
May 20 18:53 S 9 10 Mostly Cloudy BKN085 71 66     84%   72 29.67 29.67 0    
May 20 17:53 SSW 7 10 Mostly Cloudy BKN110 74 67     79%   75 29.67 29.67 0    
May 20 16:53 W 8 10 Cloudy FEW033 BKN070 OVC110 74 67     79%   75 29.67 29.67 0 0  
May 20 16:35 W 8 4 Light Rain FEW030 SCT046 OVC060 73 66     79%   74 29.68   0    
May 20 16:29 W 6 0.5 Light Rain SCT024 BKN046 OVC060 71 66     84%   72 29.68   0    
May 20 16:20   1.5 Heavy Rain FEW043 BKN060 BKN100 76 67     74%   77 29.69   0    
May 20 15:53 NW 7 10 Mostly Clear FEW120 82 65     56%   84 29.67 29.67 0    
May 20 14:53 W 9 10 Light Rain BKN055 OVC070 79 66     65%   80 29.7 29.7 0    
May 20 13:53 WSW 9 10 Mostly Clear FEW110 82 63     53%   83 29.72 29.72     0
May 20 12:53 SW 14 10 Partly Cloudy SCT041 SCT120 82 64     55%   84 29.75 29.75      
May 20 11:53 SSW 7 10 Clear CLR 78 67     69%   79 29.76 29.76      
May 20 10:53 SSW 9 10 Mostly Clear FEW021 73 66     79%   74 29.78 29.78   0  
May 20 10:21 S 8 9 Mostly Cloudy FEW013 BKN021 BKN029 71 65     81%   72 29.79        
May 20 09:53 S 5 8 Mostly Cloudy FEW012 SCT041 BKN110 69 65     87%     29.8 29.79 0    
May 20 09:46 S 7 7 Light Rain SCT012 BKN045 BKN110 69 64     84%     29.8   0    
May 20 08:53 S 9 6 Fog/Mist BKN014 67 63     87%     29.81 29.81      
May 20 08:49 SSE 8 6 Fog/Mist BKN014 66 63     88%     29.81        
May 20 08:31 S 8 6 Fog/Mist SCT008 OVC015 66 63     90%     29.82        
May 20 07:53 SSW 7 6 Fog/Mist OVC008 66 63     90%     29.83 29.83 0   0
May 20 06:53 SSE 7 5 Light Rain and Fog/Mist OVC008 65 63     93%     29.82 29.82 0    
May 20 05:53 S 5 5 Fog/Mist OVC007 65 64     97%     29.81 29.81      
May 20 05:23 S 9 8 Mostly Cloudy BKN007 BKN120 66 63     90%     29.81        
May 20 05:07 S 8 9 Mostly Clear FEW007 FEW120 66 63     90%     29.81        
May 20 04:53 S 13 10 Mostly Clear FEW110 66 64     93%     29.82 29.81 0 0  
May 20 03:53 S 8 10 Mostly Clear FEW120 67 64     90%     29.81 29.8 0    
May 20 02:53 S 9 5 Light Rain and Fog/Mist FEW009 FEW100 BKN110 67 65     93%     29.89 29.88 0    
May 20 02:38 S 7 7 Light Rain FEW009 BKN110 67 65     93%     29.88   0    
May 20 02:19 S 7 9 Mostly Cloudy FEW011 SCT020 BKN110 67 65     93%     29.89   0    
May 20 01:53 SSW 8 8 Light Rain SCT012 OVC021 68 65     90%     29.92 29.91 0   0
May 20 01:50 S 8 8 Light Rain SCT012 BKN017 OVC021 68 64     88%     29.91   0    
May 20 01:13 S 6 10 Cloudy OVC011 69 65     87%     29.88   0    
May 20 01:02 SW 6 9 Light Rain BKN008 OVC013 69 65     87%     29.89   0    
May 20 00:53 SSW 6 9 Cloudy OVC008 69 65     87%     29.89 29.88      
May 19 23:53 S 10 10 Cloudy OVC009 68 65     90%     29.91 29.91      
May 19 22:53 S 9 10 Cloudy OVC009 68 64     87%     29.91 29.91      
May 19 22:49 S 9 10 Cloudy OVC009 68 64     88%     29.91        
May 19 21:53 S 15 10 Cloudy OVC011 69 64     84%     29.93 29.93      
May 19 20:53 S 11 10 Cloudy OVC013 69 64     84%     29.92 29.92      
May 19 20:08 S 8 10 Cloudy OVC014 69 63     81%     29.92        
May 19 19:53 S 9 10 Cloudy OVC015 69 63     81%     29.93 29.93      
May 19 18:53 S 11 10 Cloudy OVC017 70 63     78%     29.93 29.93      
May 19 17:53 S 13 10 Cloudy OVC022 72 63     73%   72 29.94 29.94      
May 19 16:53 S 14 10 Cloudy OVC029 74 62     66%   74 29.95 29.95      
May 19 15:53 S 16 10 Partly Cloudy SCT034 76 61     60%   76 29.98 29.97      
May 19 14:53 S 16 10 Partly Cloudy SCT037 75 60     60%   75 30 30      
May 19 13:53 S 14 10 Mostly Clear FEW039 75 58     55%   75 30.01 30.01     0
May 19 12:53 SSE 10 10 Mostly Cloudy BKN050 72 55     55%   71 30.04 30.03      
May 19 11:53 S 11 10 Cloudy OVC046 70 54     57%     30.06 30.06      
May 19 11:22 S 11 10 Cloudy SCT028 OVC047 66 52     61%     30.06        
May 19 11:13 S 11 10 Cloudy BKN028 BKN037 OVC047 65 50     58%     30.07        
May 19 10:53 S 9 10 Cloudy BKN037 OVC046 64 51     63%     30.08 30.07   0  
May 19 09:53 S 8 10 Cloudy OVC042 61 53     75%     30.07 30.07 0    
May 15 04:53 S 5 4 Clear   59 58     96%     29.86 29.85      
May 14 13:53 SSE 8 10 Clear CLR 67 55     66%     29.96 29.96      
May 14 04:31 S 3 10 Cloudy BKN012 OVC028 51 48     89%     30.01        
May 12 08:53 N 3 10 Cloudy OVC055 53 37     54%     30.18 30.18      
May 12 01:53 Calm 10 Mostly Clear FEW120 55 35     47%     30.14 30.14      
May 12 00:53 NNE 5 10 Clear CLR 55 37     51%     30.15 30.14      
May 11 21:53 N 5 10 Clear CLR 62 29     28%     30.1 30.1      
May 11 15:53 N 8 10 Clear CLR 69 36     30%     29.99 29.99      
May 11 11:53 NW 13 10 Mostly Clear FEW040 64 38     38%     29.99 29.98      
Jun 11 10:53 5 10 Clear CLR 84 63     49%   85 30.01 30.01      
Jun 10 18:53   10 Clear   79 57     47%   79 29.93 29.93      
Jun 10 12:51 SW 8 10 Mostly Cloudy BKN075 82 55     40%   82 29.95        
Jun 10 08:53 E 3 10 Clear CLR 71 56     59%   71 29.97 29.97      
Jun 09 22:53 S 3 10 Clear CLR 61 55     81%     29.84 29.83      
Jun 08 01:53 Calm 10 Clear CLR 53 50     89%     30.02 30.02      
Jun 07 09:53 NNE 10 10 Cloudy OVC060 59 49     69%     29.99 29.98      
Jun 07 08:53 N 8 10 Cloudy SCT055 BKN070 OVC080 57 50     77%     29.98 29.98      
Jun 06 14:53 N 9 6 Light Rain and Fog/Mist BKN014 OVC019 51 49     92%     29.82 29.82 0    
Notice The following observation data may not be complete
Jun 06 08:11   2.5 Light Rain and Fog/Mist BKN007 OVC014          %         0    
Jun 06 07:49 N 10 2.5 Light Rain and Fog/Mist OVC012 52 48     87%     29.79   0